Overview Statistics Trail Chart Weather Telemetry Raw packets
 

This is the latest recevied weather packets stored in our database for station/object EA1GHG-11. If no packets are shown the sender has not sent any weather packets the latest 10 day(s).

<< 16 17 18 19 20 21 22 >>
Time Temp. Humidity Pressure Rain* Wind** Luminosity Snow
1787906791 17.22° C 100% 1024.1 hPa - - - -
1787905291 16.67° C 100% 1023.9 hPa - - - -
1787903790 16.67° C 100% 1023.6 hPa - - - -
1787902290 16.67° C 100% 1023.3 hPa - - - -
1787901692 15.56° C 100% 1023.2 hPa - - - -
1787900192 15° C 100% 1023.2 hPa - - - -
1787898692 15° C 100% 1022.6 hPa - - - -
1787897192 14.44° C 100% 1022.4 hPa - - - -
1787895692 14.44° C 100% 1022.3 hPa - - - -
1787894192 14.44° C 100% 1021.9 hPa - - - -
1787892691 14.44° C 100% 1021.7 hPa - - - -
1787891191 14.44° C 100% 1021.6 hPa - - - -
1787889691 14.44° C 100% 1021.7 hPa - - - -
1787888191 13.89° C 100% 1021.6 hPa - - - -
1787886691 13.89° C 100% 1021.6 hPa - - - -
1787885191 13.33° C 100% 1021.5 hPa - - - -
1787883691 12.78° C 100% 1021.6 hPa - - - -
1787882191 12.78° C 100% 1021.4 hPa - - - -
1787880691 13.33° C 100% 1021.5 hPa - - - -
1787880091 13.33° C 100% 1021.6 hPa - - - -
1787878591 13.33° C 100% 1021.8 hPa - - - -
1787877091 13.33° C 100% 1021.7 hPa - - - -
1787875590 13.33° C 100% 1021.8 hPa - - - -
1787874090 13.33° C 100% 1021.7 hPa - - - -
1787872590 13.33° C 100% 1021.6 hPa - - - -

* Rain since midnight (hover to see other rain measurements)
** Current wind speed in m/s (hover to see current wind gust speed)